Regional Weather Roundup
Issued by NWS

Home | Current Version | Previous Version | Text Only | Print | Product List | Glossary On
Versions: 1 2 3 4 5 6 7 8 9 10 11 12 13 14 15 16 17 18 19 20 21 22 23 24 25 26 27 28 29 30 31 32 33 34 35 36 37 38 39 40 41 42 43 44 45 46 47 48 49 50
000
ASUS43 KMPX 051510
RWRMN
WEATHER ROUNDUP FOR MINNESOTA
NATIONAL WEATHER SERVICE TWIN CITIES/CHANHASSEN MN
1000 AM CDT SAT SEP 05 2015


NOTE: "FAIR" INDICATES FEW OR NO CLOUDS BELOW 12,000 FEET WITH NO
SIGNIFICANT WEATHER AND/OR OBSTRUCTIONS TO VISIBILITY. N/A MEANS
CURRENT SKY AND/OR WEATHER CONDITIONS ARE NOT AVAILABLE.

MNZ060>063-068>070-051600-
   Twin Cities Metro

CITY           SKY/WX    TMP DP  RH WIND       PRES   REMARKS
TWIN CITIES    CLOUDY    77  70  79 S16G24    29.91F
ST PAUL        CLOUDY    76  71  85 MISG      29.91F
CRYSTAL        PTSUNNY   80  70  71 S10G18    29.89F
BLAINE         PTSUNNY   79  73  83 SE6       29.92S
LAKEVILLE      CLOUDY    72  72 100 S13G18    29.94F
EDEN PRAIRIE   PTSUNNY   77  70  79 S16G25    29.90F
SOUTH ST PAUL  CLOUDY    75  70  85 SW20G29   29.90F
LAKE ELMO      PTSUNNY   73  72  94 SE6       29.95S
$$
MNZ001>005-007-008-013>017-022>024-027-028-051600-
   Northwest Minnesota

CITY           SKY/WX    TMP DP  RH WIND       PRES   REMARKS
BEMIDJI        PTSUNNY   74  71  89 SE7       29.90F
HALLOCK        CLOUDY    64  64 100 CALM      29.91R FOG
ROSEAU         CLOUDY    70  63  78 N6        29.89F
WARROAD        FOG       68  64  88 NE5       29.91S VSB 1/4
THIEF RVR FALL CLOUDY    73  72  94 E10       29.88S
CROOKSTON      CLOUDY    73  72  94 E6        29.87S
FOSSTON        CLOUDY    73  72  94 E3        29.89S
DETROIT LAKES  MOSUNNY   77  70  78 SE9       29.89R
MOORHEAD       PTSUNNY   75  72  88 SE3       29.85S
PARK RAPIDS    PTSUNNY   76  70  82 SE10      29.89F
MAHNOMEN       PTSUNNY   76  71  82 SE6       29.87S
$$
MNZ006-009>011-018-025>026-051600-
   North Central Minnesota

CITY           SKY/WX    TMP DP  RH WIND       PRES   REMARKS
BAUDETTE       CLOUDY    72  68  87 SE7       29.91S
FLAG ISLAND    FOG       66  64  94 N7        29.91S VSB 3/4
INTL FALLS     CLOUDY    70  68  93 SE6       29.93F
WASKISH        CLOUDY    72  72 100 SE5       29.90F
BIG FORK       CLOUDY    72  70  94 S6        29.94S
LONGVILLE      MOSUNNY   75  72  88 SE9       29.91F
GRAND RAPIDS     N/A     73  66  78 SE14G21   29.95S
CRANE LAKE     PTSUNNY   70  66  88 SE3       29.96F
ORR            CLOUDY    70  66  88 SE3       29.93S
COOK           PTSUNNY   73  70  88 SE5       29.96S
WALKER         PTSUNNY   74  70  86 SE5       29.90F
$$
MNZ012-019>021-037-051600-
   Northeast Minnesota

CITY           SKY/WX    TMP DP  RH WIND       PRES   REMARKS
DULUTH         PTSUNNY   72  67  84 S12       29.98F
ELY            MOSUNNY   70  66  88 E5        29.99F
HIBBING        PTSUNNY   74  69  85 SE7       29.96S
EVELETH        PTSUNNY  N/A N/A N/A S8        29.98S
DULUTH HARBOR  PTSUNNY   64  63  94 NE5       29.97F
TWO HARBORS    MOSUNNY   73  70  88 SE5       29.97S
SILVER BAY     MOSUNNY   73  66  78 E3        29.98S
GRAND MARAIS     N/A     62  60  93 E7        30.00F
G MARAIS ARPRT FOG       64  63  94 CALM      30.04F VSB 1/4
$$
MNZ029>031-032-039>041-046>048-054>057-064-051600-
   West Central Minnesota

CITY           SKY/WX    TMP DP  RH WIND       PRES   REMARKS
FERGUS FALLS   SUNNY     79  70  73 S12       29.84S
WHEATON        MOSUNNY   75  70  83 S8        29.85R
MORRIS         MOSUNNY   79  72  78 SE14G20   29.84S
ALEXANDRIA     MOSUNNY   78  70  76 S15G22    29.88F
ELBOW LAKE     FAIR      76  71  82 SE13      29.85S
WADENA         SUNNY     79  70  73 S14       29.87F
GLENWOOD       MOSUNNY   79  72  78 S17G23    29.88F
APPLETON       PTSUNNY   79  70  73 SE12      29.84S
BENSON         MOSUNNY   79  70  73 S13G18    29.86S
ORTONVILLE     PTSUNNY   75  70  83 SE9       29.84S
MADISON        PTSUNNY   77  72  83 SE8       29.84F
WILLMAR        FAIR      81  72  74 SE12G22   29.89F
$$
MNZ033>034-036-042>043-049>051-058-059-051600-
   Central Minnesota

CITY           SKY/WX    TMP DP  RH WIND       PRES   REMARKS
ST CLOUD       SUNNY     79  69  71 S8        29.89F
SAUK CENTRE    FAIR      78  70  76 S14       29.89S
PAYNESVILLE    SUNNY     81  69  66 SE15G25   29.90S
AITKIN         PTSUNNY   77  70  78 SE6       29.93S
PINE RIVER     PTSUNNY   77  70  78 SE10      29.94F
BRAINERD       SUNNY     78  70  76 S8        29.92S
STAPLES        SUNNY     79  70  73 S10G18    29.89S
LONG PRAIRIE   FAIR      79  70  73 SE17G25   29.90R
LITTLE FALLS   SUNNY     79  68  69 SE10      29.90S
LITCHFIELD     SUNNY     81  72  74 S8G17     29.91S
BUFFALO        MOSUNNY   79  68  69 S12G21    29.90F
MAPLE LAKE     SUNNY     80  72  77 S10G20    29.91S
$$
MNZ037-044-045-052-053-051600-
   East Central Minnesota

CITY           SKY/WX    TMP DP  RH WIND       PRES   REMARKS
PRINCETON      MOSUNNY   81  72  74 SE7       29.91F
MORA           MOSUNNY   77  68  73 SE5       29.95S
CAMBRIDGE      MOSUNNY   79  66  65 SE9       29.91S
RUSH CITY      PTSUNNY   78  71  78 S10       29.95R
MOOSE LAKE     MOSUNNY   75  68  78 SE5       29.95S
HINCKLEY       PTSUNNY   77  72  83 E6        29.96R
CLOQUET        PTSUNNY   72  64  78 SE6       29.97F
MCGREGOR       CLOUDY    77  70  78 SE10      29.95S
$$
MNZ071>073-080-081-089-090-097-098-051600-
   Southwest Minnesota

CITY           SKY/WX    TMP DP  RH WIND       PRES   REMARKS
MONTEVIDEO     PTSUNNY   81  72  74 S10       29.87F
GRANITE FALLS  MOSUNNY   78  71  80 SE10G20   29.89S
CANBY          PTSUNNY   78  69  73 S6        29.86S
MARSHALL       PTSUNNY   79  66  65 S15       29.88S
REDWOOD FALLS  MOSUNNY   79  71  76 SE16G25   29.89F
OLIVIA         MOSUNNY   77  68  73 SE16G22   29.89S
PIPESTONE      PTSUNNY   77  70  78 S14       29.88S
WINDOM         PTSUNNY   79  70  73 S10G16    29.92S
WORTHINGTON    CLOUDY    75  66  73 S13G18    29.91R
JACKSON        CLOUDY    77  70  78 S15G22    29.94S
TRACY          PTSUNNY   79  72  77 S8G20     29.89R
SLAYTON        PTSUNNY   76  71  83 S8G20     29.92R
$$
MNZ065>067-074>077-082>085-091>093-051600-
   South Central Minnesota

CITY           SKY/WX    TMP DP  RH WIND       PRES   REMARKS
MANKATO        CLOUDY    73  70  88 E18       29.98S THUNDER
NEW ULM        MOSUNNY   75  72  88 SE14G24   29.93S
ST JAMES       PTSUNNY   75  72  88 E10       29.95R
FAIRMONT       PTSUNNY   79  68  69 S14       29.94S
GLENCOE        MOSUNNY   79  72  78 SE15G23   29.92F
FARIBAULT      TSTM      72  72 100 S9        30.01F
OWATONNA       TSTM      73  70  88 CALM      30.03R
WASECA         CLOUDY    72  70  94 NE7       30.03S FOG
ALBERT LEA     CLOUDY    73  72  94 SE6       30.01S
$$
MNZ078>079-086>088-094>096-051600-
   Southeast Minnesota

CITY           SKY/WX    TMP DP  RH WIND       PRES   REMARKS
ROCHESTER      CLOUDY    74  70  87 S7        30.04S
RED WING       CLOUDY    75  70  83 SW10G17   29.94F
STANTON        TSTM      73  69  87 S9        29.97F
DODGE CENTER   CLOUDY    72  70  94 S5        30.03S
WINONA         PTSUNNY   79  70  73 SW5       30.02S
AUSTIN         CLOUDY    75  70  83 SE3       30.03R
PRESTON        CLOUDY    76  70  82 S5        30.06S
$$
ABBREVIATIONS USED IN REMARKS
   TC - TEMPERATURES IN CELSIUS
  WCI - WIND CHILL INDEX
   HX - HEAT INDEX
  VSB - VISIBILITY
$$


USA.gov is the U.S. government's official web portal to all federal, state and local government web resources and services.